Location: Waco, TX
(31.5480°N, 97.1670°W)
Time: 22:18:23
(UTC-06:00)

ISS - Pass Details

Date: 21 February 2019
Orbit: 403 x 411 km, 51.6° (Epoch: 22 February)

Event Time Altitude Azimuth Distance (km) Brightness Sun altitude
Rises 07:19:39 0° 245° (WSW) 2,306 -0.5 2.3°
Reaches altitude 10° 07:21:53 10° 257° (WSW) 1,449 -1.5 2.8°
Maximum altitude 07:24:47 29° 320° (NW) 762 -2.8 3.4°
Drops below altitude 10° 07:27:42 10° 24° (NNE) 1,455 -0.9 4.0°
Sets 07:29:57 0° 35° (NE) 2,317 0.3 4.4°
